Regional Weather Roundup
Issued by NWS Wakefield, VA

Home | Current Version | Previous Version | Graphics & Text | Print | Product List | Glossary On
Versions: 1 2 3 4 5 6 7 8 9 10 11 12 13 14 15 16 17 18 19 20 21 22 23 24 25 26 27
000
ASUS41 KAKQ 200615
RWRAKQ

REGIONAL WEATHER ROUNDUP
NATIONAL WEATHER SERVICE WAKEFIELD VA
100 AM EST MON FEB 20 2017

Note: "fair" indicates few or no clouds below 12,000 feet with no
significant weather and/or obstructions to visibility. * = Denotes
station may not report precipitation (e.g., rain,snow,etc.),
thunder or fog.

VAZ042-051-052>054-056-200700-
NORTHERN VIRGINIA

CITY           SKY/WX    TMP DP  RH WIND       PRES   REMARKS
WASH NATIONAL  MOCLDY    52  42  69 W5        30.07R
DULLES         PTCLDY    50  40  68 NW3       30.08R
FORT BELVOIR   CLEAR     48  40  73 CALM      30.07R
QUANTICO       CLEAR     47  41  80 NW5       30.09R
FREDERICKSBRG* CLEAR     44  38  80 W5        30.08R
STAFFORD*      CLEAR     42  37  82 CALM      30.12R
WARRENTON      CLEAR     36  32  84 CALM      30.08R
CULPEPER*      CLEAR     42  35  78 CALM      30.10R
MANASSAS*      CLEAR     40  35  83 CALM      30.09R
LEESBURG*      CLEAR     52  45  76 MISG      30.08S
WINCHESTER     CLEAR     48  39  71 NW7       30.10S
FRONT ROYAL*   CLEAR     52  37  58 SW3       30.10R
LURAY*         CLEAR     45  37  76 SW3       30.11S
$$

VAZ048-049-060>072-079>083-200700-
CENTRAL AND SOUTH CENTRAL VIRGINIA

CITY           SKY/WX    TMP DP  RH WIND       PRES   REMARKS
RICHMOND       CLEAR     54  39  57 N10       30.08R
CHESTERFIELD*  FAIR      45  25  45 CALM      30.10R
PETERSBURG*    CLEAR     39  37  93 CALM      30.09R
HANOVER        CLEAR     47  36  65 CALM      30.10R
TAPPAHANNOCK*  CLEAR     56  27  32 NW3       30.09R
QUINTON*       FAIR      56  39  53 N6        30.08R
CHARLOTTSVILLE CLEAR     60  34  37 NW12G21   30.08R
GORDONSVILLE*  CLEAR     40  35  84 CALM      30.08S
ORANGE*        CLEAR     39  34  81 CALM      30.10R
LOUISA*        CLEAR     45  37  76 CALM      30.08R
BUMPASS*       FAIR      45  35  68 CALM      30.09R
FARMVILLE*     CLEAR     44  42  94 CALM      30.09R
CREWE*         FAIR      45  44  98 CALM      30.09R
FORT PICKETT*  FAIR      47  38  71 CALM      30.09R
CHASE CITY*    FAIR      50  40  69 NW3       30.10R
CLARKSVILLE*   FAIR      50  41  71 NW3       30.09R
SOUTH HILL*    CLEAR     49  42  79 CALM      30.14S
LAWRENCEVILLE* FAIR      49  42  76 W6        30.08S
EMPORIA*       CLEAR     43  39  87 CALM      30.10R
$$

VAZ088>098-200700-
SOUTHEAST VIRGINIA

CITY           SKY/WX    TMP DP  RH WIND       PRES   REMARKS
NORFOLK        CLEAR     51  45  79 N3        30.05R
VIRGINIA BEACH PTCLDY    44  37  76 SW3       30.05R
NORFOLK NAVAL  CLEAR     47  42  83 CALM      30.06R
WEST POINT*    CLEAR     42  40  95 CALM      30.09R
SALUDA*        FAIR      53  42  66 NW5       30.06R
NEWPORT NEWS   CLEAR     58  40  51 N12G20    30.05R
LANGLEY AFB    CLEAR     55  41  59 NW10      30.04S
FORT EUSTIS    CLEAR     56  41  57 N9        30.04R
WILLIAMSBURG*  CLEAR     55  43  62 N5        30.07S
HR EXEC AP*    FAIR      39  36  87 CALM      30.04R
FRANKLIN*      CLEAR     47  42  84 CALM      30.07R
US460-WAKEFLD  CLEAR     46  43  89 CALM      30.07R
$$

VAZ020-022-025-037-045-200700-
WEST CENTRAL AND SOUTHWEST VIRGINIA

CITY           SKY/WX    TMP DP  RH WIND       PRES   REMARKS
STAUNTON*      CLEAR     34  31  89 CALM      30.14S
WAYNESBORO*    CLEAR     47  38  71 W6        30.12S
HOT SPRINGS VA CLEAR     39  37  93 NW14      30.13F
LYNCHBURG      CLEAR     43  38  82 CALM      30.12S
DANVILLE       PTCLDY    44  40  85 SW5       30.10S
SOUTH BOSTON*  FAIR      50  40  68 CALM      30.11R
MARTINSVILLE   CLEAR     38  36  93 CALM      30.13F
ROANOKE        CLEAR     48  39  71 N7        30.15S
BLACKSBURG     CLEAR     46  42  88 W6        30.17S
DUBLIN*        CLEAR     42  39  89 CALM      30.17R
MARION*        CLEAR     43  42  95 W6        30.20R
HILLSVILLE*    CLEAR     46  42  85 NW7       30.14S
RICHLANDS*     FAIR      46  42  87 CALM      30.19R
WISE*          CLEAR     45  45 100 CALM      30.21R
ABINGDON*      CLEAR     41  40  96 CALM      30.19R FOG
$$

MDZ021>025-VAZ099-100-200700-
SOUTHERN MARYLAND AND THE DELMARVA PENINSULA

CITY           SKY/WX    TMP DP  RH WIND       PRES   REMARKS
PATUXENT RIVER CLEAR     53  42  66 W9        30.05R
BAY BRIDGE APT CLEAR     50  41  71 W9        30.04S
LEONARDTOWN    CLEAR     54  41  62 W6        30.08R
DOVER          CLEAR     50  42  74 W6        30.01R
GEORGETOWN     CLEAR     53  41  63 W5        30.03R
EASTON         CLEAR     51  40  65 NW6       30.08R
CAMBRIDGE      CLEAR     50  41  71 W6        30.05R
SALISBURY      CLEAR     54  41  61 NW6       30.03R
OCEAN CITY     PTCLDY    54  40  59 NW7       30.02R
WALLOPS ISLAND CLEAR     50  41  71 NW6       30.03S
ACCOMACK*      CLEAR     51  41  69 NW8       30.04R
$$

NCZ012>017-030>032-200700-
NORTH CENTRAL AND EASTERN NORTH CAROLINA

CITY           SKY/WX    TMP DP  RH WIND       PRES   REMARKS
ROANOKE RAPIDS FAIR      52  43  71 CALM      30.08R
RALEIGH        CLEAR     51  40  65 CALM      30.10S
ELIZABETH CITY CLEAR     48  44  86 E5        30.05R
AHOSKIE*         N/A     50  43  77 CALM      30.07R
EDENTON*       CLEAR     49  45  85 CALM      30.06R
CURRITUCK*     CLEAR     47  47 100 CALM      30.05S
KILL DEVIL HLS NOT AVBL
MANTEO         CLEAR     45  44  95 CALM      30.05R
CAPE HATTERAS  CLEAR     47  43  86 CALM      30.04S
TARBORO*       NOT AVBL
GOLDSBORO      PTCLDY    56  46  69 NW3       30.06R
WASHINGTON     CLEAR     54  44  69 NW5       30.06R
GREENVILLE     PTCLDY    45  36  70 NW3       30.08R
NEW BERN       CLEAR     48  44  86 CALM      30.07R
WILMINGTON     CLEAR     49  47  93 CALM      30.07R
$$

VAZ048-200700-
ELSEWHERE

CITY           SKY/WX    TMP DP  RH WIND       PRES   REMARKS
HARRISBURG PA  CLEAR     45  33  63 NW3       30.05R
BALTIMORE      CLEAR     48  42  80 W8        30.04R
ANNAPOLIS      CLEAR     47  41  80 W3        30.04R
ANDREWS AFB    CLEAR     52  41  67 W8        30.06R
PHILADELPHIA   CLEAR     52  33  48 N6        30.02R
HENDERSON NC   CLEAR     50  39  64 N6        30.09S
GREENSBORO     CLEAR     51  42  71 N5        30.09F
ROCKY MOUNT    CLEAR     54  44  69 NW6       30.07S
$$

VAZ100-200700-
MARINE

STATION/POSITION TIME  TEMP    WIND        PRES    WAVE   SWELL
                       AIR SEA DIR/SP/G            HT/PER HT/PER
                 (UTC) (F)     (DEG/KT/KT) (MB)    (FT/S) (FT/S)
CAPE MAY NJ      0548   47 41  280/  9/ 13 1015.7R
LEWES DE         0548   55 42  280/ 11/ 13 1016.1R
OCEAN-CITY-INLET 0548   55 43  320/  8/ 11 1016.9R
WACHAPREAGUE VA  0548   53 48  310/  1/  4 1017.1R
THOMAS POINT MD  0600   56 41  290/ 11/ 11   N/A
GOOSES REEF MD   0600   50 42  290/  8/ 10 1018.3    1
COVE POINT MD    0548   56     320/ 12/ 16 1018.2R
SOLOMONS ISLAND  0548   55 43  310/  4/  7   N/A
BISHOPS HEAD MD  0548   50 47  290/ 10/ 11 1017.7R
PINEY POINT MD   0548          340/ 10/ 10   N/A
POTOMAC MD       0600   46 43  290/  8/  8 1016.9
CAMBRIDGE MD     0548   51 40  270/  2/  5 1016.7R
LEWISETTA VA     0548   56 44  320/  8/ 10 1017.6R
RAPPAHANNOCK LGT 0548          320/ 14/ 14 1017.8R
YORK RVR RNG VA  0548   55     340/ 15/ 15 1016.9R
YORKTOWN VA      0548   54 45  320/ 11/ 12 1017.5R
JAMESTOWN VA     0600   53 48  320/  6/  6   N/A     0
DOMINION TERM VA 0548   52     320/  4/  5 1017.7R
KIPTOPEKE VA     0548      45  360/  6/  8   N/A
CHES BAY BRIDGE  0548   56 46  340/  8/  9 1017.3R
CAPE HENRY VA    0548   57     290/  7/  8   N/A
WILLOUBY STN VA  0548   55     320/  4/  4 1018.5R
S CRANEY ISL VA  0548   55     350/  3/  5 1017.4R
CAPE HENRY BUOY  0542      47                N/A     1/ 7
OFFSHORE WE BUOY 0551      48                N/A     2/ 7
64NM E OF VA BCH 0550   52 51  270/  8/ 10 1016.6R   1/ 7   2/ 7
DUCK PIER NC     0548   54 47  240/  5/  6 1016.9R
44100 DUCK FRF   0535      49                N/A     1/ 8
44056 DUCK FRF   0530      49                N/A     1/ 7
OREGON INLET NC  0542   53 51  230/  1/  2 1017.2R
HATTERAS NC      0548   54 57  260/  4/  5 1016.8S
DIAMOND SHLS NC  0550   63 67  340/  4/  6 1017.2F   2/ 7   2/ 7
CAPE LOOKOUT NC  0500   57     320/  3/  3 1017.1R
$$




USA.gov is the U.S. government's official web portal to all federal, state and local government web resources and services.